RESURS O1 DEB, 23347

Orbit data source: Space-Track

RESURS O1 DEB, 23347 is space debris in SSO originally from a launch on Fri, 04 Nov 1994 UTC launched from the Tyuratam Missile And Space Complex (TTMTR). Debris objects in space refer to the collection of defunct objects orbiting the Earth. Examples of debris include non-operational satellites, rocket bodies, and fragments generated from explosions, collisions, or faulty payload assembly.

Loading next visibility...
Identifier
23347, 1994-074F
Orbit
SSO
Country
Flag of CISCIS
Related business
Manufacturer
Yuzhnoe
Mission
Spacecraft
Bus & Motor
SEP MOTOR COVER, Unknown motor
Mass
~0 kg wet, ~1 kg dry
Launch date (UTC)
1994-11-04 (32 years ago)
Launch vehicle
Unknown
Launch site
Tyuratam Missile And Space Complex (TTMTR)
Object type
Payload
Rocket body
Debris
Shape & HBR
CONE, 0.2 m
Radar Cross Section
Medium (>0.1 m² and <1 m²)

Expand to show TLE details & history
Last TLE update: 8 hours ago

TLE from 8 hours ago
0 RESURS O1 DEB
1 23347U 94074F   26263.92961669  .00000460  00000-0  10051-3 0  9990
2 23347  97.8087 323.2707 0120186 218.4368 317.5836 14.57900486684010
Epoch: 2026-09-20T22:18Z
TLE epoch observation values (Epoch: 2026-09-20T22:18:38.882Z)
Latitude
4.78406°
Longitude
169.446°
Altitude
640.117 km
Speed
7.571 km/s
True Right ascension
09h 35m 41s
True Declination
4° 45' 18"
Sunlit
Object was in daylight at epoch
Visualization orbit readout
Latitude
Unknown
Longitude
Unknown
Altitude
Unknown
Speed
Unknown
Apparent Right ascension
Unknown
Apparent Declination
Unknown
Sunlit
N/A
Visualization observer readout
Local Sidereal Time
23:10:41
Azimuth
Unknown
Elevation
Unknown
Doppler factor
Unknown
Orbital elements
Apogee altitude
782.061 km
Perigee altitude
611.993 km
Semi-major axis
7,075.164 km
Eccentricity
0.01202
Inclination
97.8087°
RAAN
323.2707°
Arg. of periapsis
218.4368°
True anomaly
316.64427°
Mean anomaly
317.5836°
Eccentric anomaly
317.11498°
Mean motion
3.64702 °/min
Orbital period
98.71 mins
BSTAR
0.00010051
Loading maneuver chart data...
Computing Atmospheric mass density...

Documentation

Showing up to 5 results
|